Location: Ebenezer
(18.2167°N, 63.0667°W)
Time: 20:49:06
(UTC+00:00)

YAOGAN 1 - Pass Details

Date: 26 January 2020
Orbit: 619 x 621 km, 98.0° (Epoch: 22 February)

Event Time Altitude Azimuth Distance (km) Brightness Sun altitude
Rises 22:55:14 0° 164° (SSE) 2,883 6.0 -12.7°
Reaches altitude 10° 22:57:25 10° 163° (SSE) 1,979 5.1 -13.2°
Maximum altitude 23:01:43 75° 77° (ENE) 642 2.4 -14.1°
Drops below altitude 10° 23:06:01 10° 353° (N) 1,983 5.1 -15.1°
Sets 23:08:12 0° 351° (N) 2,890 5.9 -15.6°
